If you wish to contribute or participate in the discussions about articles you are invited to join SKYbrary as a registered user

 Actions

Abu Musa Airport

From SKYbrary Wiki

OIBA /
Revision as of 11:35, 20 February 2018 by Editor1 (talk | contribs)
(diff) ← Older revision | Latest revision (diff) | Newer revision → (diff)
Airport
ICAO: OIBA – IATA: AEU
Summary
Name Abu Musa Airport
Region Asia and Pacific
Territory Iran IR.gif
Location Abu Musa Island, Hormozgan
Serving Abu Musa
Elevation 7.01 m
23 ft7.01 m
Coordinates 25° 52' 33.42" N, 55° 1' 57.84" E
Runways
Designator Length Width Surface ROPS
8/26 2986 m9,796.588 ft
45 m147.638 ft
ASP /


METAR
Observation OIBA 180600Z 30004KT 6000 NSC 34/30 Q0998
Station Abumusa Island / Abumusa
Date/Time 18 June 2019 06:00:00
Wind direction 300°
Wind speed 04 kts
Lowest cloud amount nil significant cloud
Temperature 34°C
Dew point 30°C
Humidity 79%
QNH 998 hPa
Weather condition n/a

Abu Musa Airport or Abumusa Airport is an airport serving Abu Musa Island, in the Hormozgan Province in Iran.

Climatology

Hot desert climate (Köppen climate classification BWh).

Maps

Terrain

Loading map...

Airport Layout

Loading map...


Accidents & Serious Incidents at or in vicinity of OIBA

None on SKYbrary